EW8943 Weather Reports


time (UTC)temp
F
wind
direction
speed
knots
gust
knots
rain 1hr
in
rain 24hr
in
rain mn
in
humidity
%
barometer
mb
20260510120030 51 131 0.0 0.9 0.00 0.02 0.00 94 1010.7
20260510114536 50 131 0.0 1.7 0.00 0.02 0.00 94 1010.4
20260510113032 49 131 0.0 0.0 0.00 0.02 0.00 94 1010.3
20260510111527 49 131 0.0 0.0 0.00 0.02 0.00 94 1010.1
20260510110030 49 131 0.0 1.7 0.00 0.02 0.00 94 1010.3
20260510104518 48 131 0.0 0.9 0.00 0.02 0.00 93 1010.1
20260510103016 48 131 0.0 0.0 0.00 0.02 0.00 93 1009.8
20260510101513 48 131 0.0 0.0 0.00 0.02 0.00 93 1009.8
20260510100012 48 131 0.0 0.0 0.00 0.02 0.00 93 1009.4
20260510094513 48 131 0.0 0.0 0.00 0.02 0.00 93 1009.4
20260510093011 48 131 0.0 0.0 0.00 0.02 0.00 93 1009.3
20260510091510 47 131 0.0 2.6 0.00 0.02 0.00 93 1009.1
20260510090010 47 131 0.0 1.7 0.00 0.02 0.00 93 1009.3
20260510084509 47 131 0.0 2.6 0.00 0.02 0.00 92 1009.5
20260510083014 46 196 0.9 2.6 0.00 0.02 0.00 92 1008.9
20260510081505 46 110 0.0 3.5 0.00 0.02 0.00 92 1009.4
20260510080002 46 101 0.0 1.7 0.00 0.02 0.00 92 1008.7
20260510074502 46 101 0.0 0.0 0.00 0.02 0.00 91 1008.5
20260510073103 46 101 0.0 0.0 0.00 0.02 0.00 91 1008.6
20260510071603 46 101 0.0 0.0 0.00 0.02 0.00 91 1008.4
20260510070109 47 101 0.0 0.0 0.00 0.02 0.00 91 1008.3
20260510064601 47 101 0.0 0.0 0.00 0.02 0.00 91 1008.2
20260510063100 47 101 0.0 0.0 0.00 0.02 0.00 91 1008.1
20260510061552 47 101 0.0 0.0 0.00 0.02 0.00 91 1008.1
20260510060052 47 101 0.0 0.0 0.00 0.02 0.00 91 1008.2
20260510054554 48 101 0.0 0.0 0.00 0.02 0.00 90 1008.2
20260510053047 48 101 0.0 0.0 0.00 0.02 0.00 91 1008.4
20260510051545 48 101 0.0 0.0 0.00 0.02 0.00 90 1008.5
20260510050048 49 101 0.0 0.0 0.00 0.02 0.00 90 1008.5
20260510044541 49 101 0.0 0.0 0.00 0.02 0.00 90 1008.6
20260510043039 50 101 0.0 0.0 0.00 0.02 0.00 90 1008.7
20260510041547 50 101 0.0 0.0 0.00 0.02 0.00 90 1008.7
20260510040035 50 101 0.0 0.0 0.00 0.02 0.00 90 1008.6
20260510034534 51 101 0.0 0.0 0.00 0.02 0.02 90 1008.7
20260510033032 51 101 0.0 0.0 0.00 0.02 0.02 90 1008.6
20260510031533 51 101 0.0 0.0 0.00 0.02 0.02 89 1008.5
20260510030029 52 101 0.0 0.0 0.00 0.02 0.02 89 1008.4
20260510024527 52 101 0.0 0.0 0.00 0.02 0.02 89 1008.2
20260510023026 52 101 0.0 0.0 0.00 0.02 0.02 88 1008.3
20260510021534 53 101 0.0 0.0 0.00 0.02 0.02 88 1008.3
20260510020029 53 101 0.0 0.0 0.00 0.02 0.02 88 1008.2
20260510014523 54 101 0.0 0.0 0.00 0.02 0.02 88 1008.0
20260510013021 54 101 0.0 0.0 0.00 0.02 0.02 87 1008.0
20260510011520 55 101 0.0 0.0 0.00 0.02 0.02 87 1007.9
20260510010020 55 101 0.0 0.0 0.00 0.02 0.02 87 1007.7
20260510004519 55 101 0.0 0.0 0.00 0.02 0.02 87 1007.6
20260510003021 56 101 0.0 0.0 0.00 0.02 0.02 87 1007.5
20260510001528 56 101 0.0 0.0 0.00 0.02 0.02 87 1007.5
20260510000018 57 101 0.0 0.0 0.00 0.02 0.02 87 1007.6
20260509234517 57 101 0.0 0.9 0.00 0.02 0.02 86 1007.3
20260509233018 57 101 0.0 1.7 0.00 0.02 0.02 86 1007.4
20260509231516 58 101 0.0 0.9 0.00 0.02 0.02 85 1007.5
20260509230016 58 101 0.0 0.0 0.00 0.02 0.02 85 1007.3
20260509224515 58 101 0.0 1.7 0.00 0.02 0.02 84 1007.3
20260509223014 59 101 0.0 2.6 0.00 0.02 0.02 84 1007.5
20260509221514 59 165 0.9 1.7 0.00 0.02 0.02 84 1007.4
20260509220014 59 165 0.0 2.6 0.00 0.02 0.02 85 1007.4
20260509214522 58 165 0.0 1.7 0.00 0.02 0.02 86 1007.3
20260509213012 58 166 0.0 0.0 0.00 0.02 0.02 85 1007.4
20260509211512 58 166 0.0 0.0 0.00 0.02 0.02 84 1007.4
20260509210013 58 166 0.0 1.7 0.00 0.02 0.02 83 1007.5
20260509204523 59 167 0.0 0.0 0.00 0.02 0.02 84 1007.6
20260509203010 59 167 0.0 0.0 0.00 0.02 0.02 83 1007.4
20260509201510 59 167 0.0 1.7 0.00 0.02 0.02 84 1007.6
20260509200012 58 138 0.9 2.6 0.00 0.02 0.02 86 1007.2
20260509194509 58 134 0.0 0.9 0.00 0.02 0.02 87 1007.6
20260509193004 57 284 0.0 0.9 0.00 0.02 0.02 86 1007.7
20260509191502 57 284 0.0 0.9 0.00 0.02 0.02 86 1008.2
20260509190002 57 284 0.0 1.7 0.00 0.02 0.02 85 1008.3
20260509184558 57 284 0.0 2.6 0.01 0.02 0.02 84 1008.7
20260509183057 57 284 0.0 2.6 0.01 0.02 0.02 85 1008.8
20260509181604 58 284 0.0 2.6 0.01 0.02 0.02 85 1008.8
20260509180059 58 284 0.0 1.7 0.01 0.02 0.02 85 1008.9
20260509174603 58 284 0.0 1.7 0.00 0.01 0.01 85 1009.0
20260509173109 58 284 0.0 2.6 0.00 0.01 0.01 85 1009.0
20260509171601 58 284 0.0 0.0 0.00 0.01 0.01 85 1009.0
20260509170055 59 284 0.0 0.9 0.00 0.01 0.01 84 1008.8
20260509164555 59 292 0.0 0.9 0.00 0.01 0.01 85 1008.8
20260509163103 59 292 0.0 1.7 0.01 0.01 0.01 85 1008.7
20260509161552 60 292 0.0 0.9 0.01 0.01 0.01 85 1008.7
20260509160058 60 293 0.0 0.0 0.01 0.01 0.01 83 1009.3
20260509154600 60 293 0.0 1.7 0.01 0.01 0.01 80 1009.5
20260509153050 60 293 1.7 3.5 0.00 0.00 0.00 78 1009.7
20260509151553 60 298 0.9 3.5 0.00 0.00 0.00 78 1009.7
20260509150049 61 306 0.9 2.6 0.00 0.00 0.00 77 1009.7
20260509144605 61 279 0.9 3.5 0.00 0.00 0.00 76 1009.5
20260509143049 60 279 1.7 7.0 0.00 0.00 0.00 74 1009.5
20260509141547 60 234 1.7 7.0 0.00 0.00 0.00 74 1009.3
20260509140058 60 213 1.7 5.2 0.00 0.00 0.00 75 1009.2
20260509134546 59 261 0.9 5.2 0.00 0.00 0.00 77 1009.1
20260509133038 59 189 0.9 6.1 0.00 0.00 0.00 79 1009.1
20260509131548 58 251 1.7 7.0 0.00 0.00 0.00 80 1009.0
20260509130035 57 240 0.0 2.6 0.00 0.00 0.00 82 1009.1
20260509124537 56 258 0.0 3.5 0.00 0.00 0.00 84 1009.2
20260509123032 55 252 0.0 0.9 0.00 0.00 0.00 85 1009.2
20260509121541 54 252 0.0 2.6 0.00 0.00 0.00 85 1009.3